TimeCST,TemperatureF,Dew PointF,Humidity,Sea Level PressureIn,VisibilityMPH,Wind Direction,Wind SpeedMPH,Gust SpeedMPH,PrecipitationIn,Events,Conditions,WindDirDegrees,DateUTC
12:15 AM,28.9,24.8,84,29.88,5.0,North,8.1,-,N/A,,Scattered Clouds,10,2013-02-26 06:15:00
12:35 AM,28.6,24.6,85,29.88,5.0,North,5.8,-,N/A,,Scattered Clouds,360,2013-02-26 06:35:00
12:55 AM,28.4,24.6,86,29.87,5.0,North,10.4,-,N/A,,Mostly Cloudy,360,2013-02-26 06:55:00
1:15 AM,28.2,24.8,87,29.85,5.0,North,11.5,-,N/A,,Overcast,350,2013-02-26 07:15:00
1:35 AM,28.4,24.8,86,29.85,4.0,North,11.5,-,N/A,,Overcast,360,2013-02-26 07:35:00
1:55 AM,28.2,25.2,88,29.85,4.0,North,10.4,-,N/A,,Overcast,360,2013-02-26 07:55:00
2:15 AM,28.2,25.3,89,29.86,3.0,NNE,9.2,-,N/A,,Overcast,20,2013-02-26 08:15:00
2:35 AM,28.2,25.3,89,29.86,3.0,North,9.2,-,N/A,,Overcast,10,2013-02-26 08:35:00
2:55 AM,28.2,25.3,89,29.84,3.0,North,12.7,17.3,N/A,,Overcast,360,2013-02-26 08:55:00
3:15 AM,28.4,25.5,89,29.83,3.0,North,9.2,-,N/A,,Overcast,360,2013-02-26 09:15:00
3:35 AM,28.4,25.7,90,29.83,2.5,North,11.5,17.3,N/A,,Overcast,350,2013-02-26 09:35:00
3:55 AM,28.2,25.5,90,29.84,2.0,North,11.5,16.1,N/A,Snow,Light Snow,360,2013-02-26 09:55:00
4:15 AM,28.0,25.3,90,29.83,2.5,North,9.2,-,N/A,,Overcast,10,2013-02-26 10:15:00
4:35 AM,28.0,25.3,90,29.83,3.0,North,13.8,18.4,N/A,,Overcast,350,2013-02-26 10:35:00
4:55 AM,27.5,24.8,90,29.83,3.0,North,11.5,-,N/A,,Overcast,360,2013-02-26 10:55:00
5:15 AM,27.9,25.3,90,29.83,3.0,North,10.4,-,N/A,,Overcast,360,2013-02-26 11:15:00
5:35 AM,27.5,25.2,91,29.83,3.0,North,11.5,-,N/A,,Overcast,10,2013-02-26 11:35:00
5:55 AM,27.5,25.0,90,29.83,3.0,North,8.1,-,N/A,,Overcast,10,2013-02-26 11:55:00
6:15 AM,27.5,24.8,90,29.83,3.0,North,11.5,18.4,N/A,,Overcast,10,2013-02-26 12:15:00
6:35 AM,27.1,24.6,90,29.83,3.0,North,11.5,17.3,N/A,,Overcast,10,2013-02-26 12:35:00
6:55 AM,27.1,24.8,91,29.82,2.5,North,12.7,16.1,N/A,,Overcast,360,2013-02-26 12:55:00
7:15 AM,27.1,24.6,90,29.82,2.5,North,13.8,-,N/A,,Overcast,360,2013-02-26 13:15:00
7:35 AM,27.0,24.3,90,29.82,2.0,North,11.5,-,N/A,,Overcast,350,2013-02-26 13:35:00
7:55 AM,27.1,24.4,90,29.83,1.8,North,9.2,-,N/A,Snow,Light Snow,10,2013-02-26 13:55:00
8:15 AM,27.1,24.3,89,29.83,2.5,North,12.7,-,N/A,,Overcast,10,2013-02-26 14:15:00
8:35 AM,27.1,24.3,89,29.85,2.5,North,11.5,-,N/A,,Overcast,360,2013-02-26 14:35:00
8:55 AM,27.5,24.6,89,29.85,2.0,North,10.4,17.3,N/A,,Overcast,360,2013-02-26 14:55:00
9:15 AM,27.9,24.6,88,29.85,2.5,North,15.0,19.6,N/A,,Overcast,350,2013-02-26 15:15:00
9:35 AM,28.4,24.8,86,29.84,2.5,North,13.8,23.0,N/A,,Overcast,350,2013-02-26 15:35:00
9:55 AM,29.1,25.2,85,29.84,2.5,North,16.1,21.9,N/A,,Overcast,350,2013-02-26 15:55:00
10:15 AM,29.8,25.5,84,29.83,3.0,North,17.3,21.9,N/A,,Haze,350,2013-02-26 16:15:00
10:35 AM,30.2,25.7,83,29.83,3.0,NNW,17.3,-,N/A,,Mostly Cloudy,340,2013-02-26 16:35:00
10:55 AM,30.2,25.7,83,29.83,3.0,North,17.3,-,N/A,,Overcast,350,2013-02-26 16:55:00
11:15 AM,30.7,25.7,82,29.84,4.0,North,12.7,17.3,N/A,,Haze,350,2013-02-26 17:15:00
11:35 AM,31.1,26.1,82,29.84,3.0,North,10.4,-,N/A,,Haze,350,2013-02-26 17:35:00
11:55 AM,32.0,26.4,80,29.83,3.0,North,12.7,16.1,N/A,,Haze,360,2013-02-26 17:55:00
12:15 PM,32.0,26.2,79,29.82,4.0,North,13.8,17.3,N/A,,Haze,360,2013-02-26 18:15:00
12:35 PM,32.0,25.7,78,29.81,4.0,North,13.8,-,N/A,,Haze,360,2013-02-26 18:35:00
12:55 PM,32.2,25.9,78,29.81,4.0,North,8.1,-,N/A,,Haze,10,2013-02-26 18:55:00
1:15 PM,32.0,25.9,78,29.81,5.0,North,13.8,-,N/A,,Haze,360,2013-02-26 19:15:00
1:35 PM,32.0,25.7,78,29.81,4.0,North,12.7,-,N/A,,Haze,360,2013-02-26 19:35:00
1:55 PM,32.0,25.7,78,29.81,5.0,North,12.7,-,N/A,,Haze,10,2013-02-26 19:55:00
2:15 PM,32.2,25.7,77,29.81,5.0,North,12.7,17.3,N/A,,Haze,10,2013-02-26 20:15:00
2:35 PM,32.2,25.7,77,29.81,5.0,NNE,12.7,-,N/A,,Haze,20,2013-02-26 20:35:00
2:55 PM,32.2,25.9,78,29.82,5.0,North,11.5,-,N/A,,Haze,350,2013-02-26 20:55:00
3:15 PM,32.4,25.7,76,29.81,5.0,North,11.5,-,N/A,,Haze,350,2013-02-26 21:15:00
3:35 PM,32.4,25.9,77,29.81,5.0,North,11.5,-,N/A,,Haze,360,2013-02-26 21:35:00
3:55 PM,32.4,26.6,79,29.82,4.0,North,10.4,16.1,N/A,Snow,Light Snow,350,2013-02-26 21:55:00
4:15 PM,32.4,26.6,79,29.82,5.0,North,11.5,-,N/A,,Haze,350,2013-02-26 22:15:00
4:35 PM,32.2,26.6,80,29.83,5.0,North,12.7,16.1,N/A,,Haze,350,2013-02-26 22:35:00
4:55 PM,32.4,26.4,79,29.83,5.0,North,13.8,-,N/A,,Haze,350,2013-02-26 22:55:00
5:15 PM,32.2,27.1,82,29.84,2.5,North,9.2,-,N/A,Snow,Light Snow,350,2013-02-26 23:15:00
5:35 PM,32.0,27.5,83,29.85,1.2,North,10.4,-,N/A,Snow,Light Snow,350,2013-02-26 23:35:00
5:55 PM,31.6,27.9,86,29.85,1.0,North,9.2,-,N/A,Snow,Light Snow,350,2013-02-26 23:55:00
6:15 PM,31.6,28.4,88,29.86,0.8,NNW,9.2,-,N/A,Snow,Light Snow,340,2013-02-27 00:15:00
6:35 PM,31.5,28.4,88,29.87,1.5,NNW,11.5,-,N/A,Snow,Light Snow,340,2013-02-27 00:35:00
6:55 PM,31.1,28.2,89,29.88,1.8,NNW,11.5,18.4,N/A,Snow,Light Snow,340,2013-02-27 00:55:00
7:15 PM,31.1,28.4,90,29.88,1.8,NNW,10.4,-,N/A,Snow,Light Snow,340,2013-02-27 01:15:00
7:35 PM,31.1,28.0,88,29.89,2.5,North,11.5,-,N/A,Snow,Light Snow,350,2013-02-27 01:35:00
7:55 PM,31.1,27.5,87,29.90,3.0,North,10.4,-,N/A,Snow,Light Snow,350,2013-02-27 01:55:00
8:15 PM,31.1,27.1,85,29.91,3.0,North,9.2,-,N/A,Snow,Light Snow,360,2013-02-27 02:15:00
8:35 PM,30.7,27.3,87,29.91,3.0,North,8.1,-,N/A,Snow,Light Snow,360,2013-02-27 02:35:00
8:55 PM,30.6,27.0,86,29.92,3.0,North,8.1,16.1,N/A,Snow,Light Snow,360,2013-02-27 02:55:00
9:15 PM,30.2,26.6,86,29.93,4.0,North,8.1,-,N/A,,Overcast,350,2013-02-27 03:15:00
9:35 PM,30.2,25.7,83,29.93,5.0,North,8.1,-,N/A,,Overcast,360,2013-02-27 03:35:00
9:55 PM,30.2,25.7,83,29.93,5.0,North,8.1,-,N/A,,Overcast,350,2013-02-27 03:55:00
10:15 PM,29.7,25.5,85,29.93,5.0,North,10.4,-,N/A,,Haze,350,2013-02-27 04:15:00
10:55 PM,29.3,25.5,86,29.93,5.0,North,10.4,-,N/A,,Overcast,350,2013-02-27 04:55:00
11:15 PM,29.3,25.3,85,29.94,5.0,North,9.2,-,N/A,,Overcast,350,2013-02-27 05:15:00
11:35 PM,29.3,25.3,85,29.94,5.0,North,11.5,-,N/A,,Overcast,350,2013-02-27 05:35:00
11:55 PM,29.3,24.8,83,29.94,7.0,North,11.5,17.3,N/A,,Overcast,350,2013-02-27 05:55:00